When you browse on this site, cookies collect data to enhance your experience and personalize the content and advertising you see.
Visit our Privacy Policy to learn more. By continuing to use the site, you agree to this use of cookies and data.
  • In Portugal
  • List of Countries
  • For 7 days
  • Water Temperature
  • Satellite Maps
  • Weather Map
  • Weather Widgets
  • user-avatar
    Login

    Hourly Weather Lizovo

    Today, 17 February, Sunday

    Time Temperature Precipitation Wind Pressure Humidity
    00:00 +1°C° 0 mm 6 mps 748 mmHg 82%
    01:00 -1°C° 0 mm 6 mps 748 mmHg 84%
    02:00 0°C° 0 mm 5 mps 748 mmHg 86%
    03:00 0°C° 0 mm 5 mps 748 mmHg 87%
    04:00 -1°C° 0 mm 5 mps 748 mmHg 89%
    05:00 -1°C° 0 mm 5 mps 748 mmHg 90%
    06:00 -1°C° 0 mm 5 mps 749 mmHg 88%
    07:00 -2°C° 0 mm 5 mps 749 mmHg 86%
    08:00 -4°C° 0 mm 5 mps 749 mmHg 84%
    09:00 -3°C° 0 mm 6 mps 750 mmHg 81%
    10:00 -2°C° 0 mm 6 mps 750 mmHg 77%
    11:00 -2°C° 0 mm 6 mps 751 mmHg 74%
    12:00 -2°C° 0 mm 6 mps 751 mmHg 74%
    13:00 -1°C° 0 mm 6 mps 752 mmHg 73%
    14:00 -1°C° 0 mm 6 mps 753 mmHg 72%
    15:00 -1°C° 0 mm 5 mps 753 mmHg 74%
    16:00 -1°C° 0 mm 5 mps 754 mmHg 75%
    17:00 -2°C° 0 mm 5 mps 754 mmHg 77%
    18:00 -2°C° 0 mm 4 mps 755 mmHg 78%
    19:00 -3°C° 0 mm 4 mps 756 mmHg 79%
    20:00 -3°C° 0 mm 4 mps 756 mmHg 81%
    21:00 -4°C° 0 mm 4 mps 757 mmHg 82%
    22:00 -4°C° 0 mm 3 mps 758 mmHg 83%
    23:00 -5°C° 0 mm 3 mps 758 mmHg 83%

    Tomorrow, 18 February, Monday

    Time Temperature Precipitation Wind Pressure Humidity
    00:00 -5°C° 0 mm 3 mps 759 mmHg 85%
    01:00 -5°C° 0 mm 2 mps 759 mmHg 86%
    02:00 -5°C° 0 mm 2 mps 760 mmHg 88%
    03:00 -5°C° 0 mm 2 mps 760 mmHg 89%
    04:00 -6°C° 0 mm 2 mps 760 mmHg 89%
    05:00 -4°C° 0 mm 1 mps 761 mmHg 90%
    06:00 -4°C° 0 mm 1 mps 761 mmHg 89%
    07:00 -4°C° 0 mm 1 mps 761 mmHg 89%
    08:00 -6°C° 0 mm 0 mps 762 mmHg 88%
    09:00 -3°C° 0 mm 1 mps 762 mmHg 82%
    10:00 -2°C° 0 mm 1 mps 762 mmHg 76%
    11:00 -1°C° 0 mm 1 mps 762 mmHg 70%
    12:00 -1°C° 0 mm 1 mps 762 mmHg 69%
    13:00 0°C° 0 mm 1 mps 761 mmHg 67%
    14:00 -2°C° 0 mm 2 mps 761 mmHg 66%
    15:00 -2°C° 0 mm 2 mps 761 mmHg 70%
    16:00 -3°C° 0 mm 2 mps 760 mmHg 73%
    17:00 -4°C° 0 mm 3 mps 760 mmHg 76%
    18:00 -4°C° 0 mm 3 mps 759 mmHg 76%
    19:00 -4°C° 0 mm 3 mps 759 mmHg 75%
    20:00 -4°C° 0 mm 4 mps 759 mmHg 75%
    21:00 -4°C° 0 mm 4 mps 758 mmHg 76%
    22:00 -4°C° 0 mm 4 mps 758 mmHg 77%
    23:00 -4°C° 0 mm 4 mps 757 mmHg 77%

    Day after tomorrow, 19 February, Tuesday

    Time Temperature Precipitation Wind Pressure Humidity
    00:00 -4°C° 0 mm 4 mps 757 mmHg 80%
    01:00 -3°C° 0 mm 4 mps 756 mmHg 83%
    02:00 -4°C° 0 mm 5 mps 755 mmHg 86%
    03:00 -4°C° 0 mm 5 mps 755 mmHg 87%
    04:00 -2°C° 0 mm 5 mps 754 mmHg 89%
    05:00 -2°C° 0 mm 5 mps 753 mmHg 90%
    06:00 -1°C° 0 mm 4 mps 753 mmHg 90%
    07:00 -1°C° 0 mm 4 mps 752 mmHg 91%
    08:00 -1°C° 0 mm 4 mps 752 mmHg 91%
    09:00 0°C° 0 mm 4 mps 752 mmHg 91%
    10:00 0°C° 0 mm 4 mps 751 mmHg 90%
    11:00 0°C° 0 mm 4 mps 751 mmHg 90%
    12:00 0°C° 0 mm 4 mps 750 mmHg 89%
    13:00 0°C° 0 mm 4 mps 749 mmHg 88%
    14:00 +1°C° 0 mm 4 mps 749 mmHg 87%
    15:00 0°C° 0 mm 4 mps 748 mmHg 87%
    16:00 0°C° 0 mm 4 mps 747 mmHg 88%
    17:00 0°C° 0 mm 4 mps 747 mmHg 88%
    18:00 0°C° 0 mm 4 mps 746 mmHg 89%
    19:00 0°C° 0 mm 4 mps 745 mmHg 89%
    20:00 0°C° 0 mm 5 mps 745 mmHg 89%
    21:00 0°C° 0.6 mm 4 mps 744 mmHg 90%
    22:00 0°C° 0.6 mm 4 mps 744 mmHg 90%
    23:00 0°C° 0.6 mm 4 mps 743 mmHg 90%

    20 February, Wednesday

    Time Temperature Precipitation Wind Pressure Humidity
    00:00 0°C° 0.1 mm 4 mps 743 mmHg 91%
    01:00 0°C° 0.1 mm 4 mps 743 mmHg 93%
    02:00 0°C° 0.1 mm 4 mps 743 mmHg 94%
    03:00 0°C° 0.1 mm 4 mps 742 mmHg 93%
    04:00 0°C° 0.1 mm 5 mps 742 mmHg 92%
    05:00 +1°C° 0.1 mm 5 mps 742 mmHg 92%
    06:00 +1°C° 0.2 mm 5 mps 741 mmHg 90%
    07:00 +1°C° 0.2 mm 5 mps 741 mmHg 89%
    08:00 +1°C° 0.2 mm 5 mps 741 mmHg 87%
    09:00 +1°C° 0.2 mm 5 mps 741 mmHg 86%
    10:00 +1°C° 0.2 mm 6 mps 741 mmHg 85%
    11:00 +1°C° 0.2 mm 6 mps 741 mmHg 84%
    12:00 +1°C° 0.1 mm 6 mps 741 mmHg 78%
    13:00 -1°C° 0.1 mm 6 mps 741 mmHg 71%
    14:00 -1°C° 0.1 mm 7 mps 741 mmHg 64%
    15:00 -2°C° 0.1 mm 6 mps 741 mmHg 68%
    16:00 -3°C° 0.1 mm 6 mps 742 mmHg 72%
    17:00 -3°C° 0.1 mm 6 mps 742 mmHg 76%
    18:00 -4°C° 0.4 mm 7 mps 743 mmHg 78%
    19:00 -5°C° 0.4 mm 8 mps 743 mmHg 81%
    20:00 -5°C° 0.4 mm 8 mps 744 mmHg 83%
    21:00 -6°C° 0.1 mm 8 mps 745 mmHg 81%
    22:00 -6°C° 0.1 mm 8 mps 745 mmHg 78%
    23:00 -6°C° 0.1 mm 8 mps 746 mmHg 76%

    21 February, Thursday

    Time Temperature Precipitation Wind Pressure Humidity
    00:00 -7°C° 0 mm 8 mps 747 mmHg 74%
    01:00 -8°C° 0 mm 8 mps 748 mmHg 72%
    02:00 -8°C° 0 mm 8 mps 749 mmHg 70%
    03:00 -10°C° 0.1 mm 8 mps 750 mmHg 70%
    04:00 -10°C° 0.1 mm 8 mps 751 mmHg 69%
    05:00 -10°C° 0.1 mm 8 mps 752 mmHg 69%
    06:00 -10°C° 0 mm 8 mps 753 mmHg 69%
    07:00 -11°C° 0 mm 8 mps 754 mmHg 69%
    08:00 -11°C° 0 mm 7 mps 755 mmHg 69%
    09:00 -11°C° 0 mm 7 mps 755 mmHg 68%
    10:00 -9°C° 0 mm 7 mps 756 mmHg 67%
    11:00 -9°C° 0 mm 7 mps 757 mmHg 65%
    12:00 -9°C° 0 mm 6 mps 758 mmHg 65%
    13:00 -9°C° 0 mm 6 mps 758 mmHg 65%
    14:00 -9°C° 0 mm 6 mps 759 mmHg 64%
    15:00 -8°C° 0 mm 5 mps 759 mmHg 66%
    16:00 -10°C° 0 mm 5 mps 760 mmHg 68%
    17:00 -10°C° 0 mm 5 mps 761 mmHg 70%
    18:00 -9°C° 0 mm 4 mps 761 mmHg 71%
    19:00 -10°C° 0 mm 4 mps 762 mmHg 73%
    20:00 -9°C° 0 mm 3 mps 762 mmHg 74%
    21:00 -9°C° 0 mm 3 mps 763 mmHg 76%
    22:00 -10°C° 0 mm 3 mps 764 mmHg 77%
    23:00 -10°C° 0 mm 3 mps 764 mmHg 78%

    22 February, Friday

    Time Temperature Precipitation Wind Pressure Humidity
    00:00 -10°C° 0 mm 3 mps 765 mmHg 79%
    01:00 -10°C° 0 mm 3 mps 765 mmHg 80%
    02:00 -9°C° 0 mm 2 mps 766 mmHg 81%
    03:00 -9°C° 0 mm 2 mps 766 mmHg 81%
    04:00 -9°C° 0 mm 2 mps 767 mmHg 81%
    05:00 -10°C° 0 mm 2 mps 767 mmHg 81%
    06:00 -10°C° 0 mm 2 mps 768 mmHg 81%
    07:00 -10°C° 0 mm 2 mps 769 mmHg 81%
    08:00 -10°C° 0 mm 2 mps 769 mmHg 81%
    09:00 -9°C° 0 mm 2 mps 770 mmHg 75%
    10:00 -7°C° 0 mm 2 mps 770 mmHg 70%
    11:00 -6°C° 0 mm 2 mps 771 mmHg 65%
    12:00 -5°C° 0 mm 2 mps 771 mmHg 62%
    13:00 -5°C° 0 mm 2 mps 772 mmHg 60%
    14:00 -5°C° 0 mm 3 mps 772 mmHg 57%
    15:00 -5°C° 0 mm 2 mps 772 mmHg 62%
    16:00 -5°C° 0 mm 2 mps 773 mmHg 66%
    17:00 -6°C° 0 mm 2 mps 773 mmHg 71%
    18:00 -6°C° 0 mm 2 mps 773 mmHg 73%
    19:00 -7°C° 0 mm 2 mps 773 mmHg 75%
    20:00 -7°C° 0 mm 2 mps 774 mmHg 76%
    21:00 -8°C° 0 mm 2 mps 774 mmHg 77%
    22:00 -8°C° 0 mm 2 mps 774 mmHg 77%
    23:00 -8°C° 0 mm 2 mps 774 mmHg 77%
    Show more